Lexington, NE

9:13 AM CST on February 26, 2017 (GMT -0600)
Kelly

Weather History for KLXN - June, 2013

Change the Weather History Date:

Tuesday, June 11, 2013

  Actual Average Record
Temperature  
Mean Temperature 86 °F -  
Max Temperature 102 °F 77 °F 102 °F (2013)
Min Temperature 69 °F 53 °F 48 °F (2011)
Cooling Degree Days 20    
Growing Degree Days 36 (Base 50)    
Moisture  
Dew Point 59 °F    
Average Humidity 42    
Maximum Humidity 70    
Minimum Humidity 20    
Precipitation  
Precipitation 0.11 in - - ()
Sea Level Pressure  
Sea Level Pressure 29.70 in    
Wind  
Wind Speed 11 mph (ESE)    
Max Wind Speed 29 mph    
Max Gust Speed 45 mph    
Visibility 10 miles    
Events Rain , Thunderstorm    
Averages and records for this station are not official NWS values.
T = Trace of Precipitation, MM = Missing Value Source: NWS Daily Summary

Daily Weather History Graph

Daily Weather History Graph

Search for Another Location

Airport or City:

Trip Planner

Search our weather history database for the weather conditions in past years. The results will help you decide how hot, cold, wet, or windy it might be!

Date:

Astronomy

Jun. 11, 2013 Rise Set
Actual Time 6:07 AM CDT 9:10 PM CDT
Civil Twilight 5:33 AM CDT 9:44 PM CDT
Nautical Twilight 4:51 AM CDT 10:26 PM CDT
Astronomical Twilight 4:01 AM CDT 11:16 PM CDT
Moon 8:52 AM CDT (6/11) 11:13 PM CDT (6/11)
Length of Visible Light 16h 10m
Length of Day
15h 03m
Waxing Crescent, 8% of the Moon is Illuminated
Jun 11
Waxing Crescent
Jun 16
First Quarter
Jun 23
Full
Jun 29
Last Quarter
Jul 8
New

Hourly Weather History & Observations

Time (CDT) Temp. Heat Index Dew Point Humidity Pressure Visibility Wind Dir Wind Speed Gust Speed Precip Events Conditions
12:15 AM 80.2 °F 82.8 °F 67.8 °F 66% 29.86 in 10.0 mi Calm Calm - N/A Rain , Thunderstorm Light Thunderstorms and Rain
12:35 AM 79.0 °F - 56.8 °F 46% 29.84 in 2.0 mi SSW 28.8 mph 44.9 mph 0.09 in Rain , Thunderstorm Heavy Thunderstorms and Rain
12:55 AM 77.5 °F - 58.3 °F 51% 29.83 in 10.0 mi South 25.3 mph 34.5 mph 0.11 in Rain , Thunderstorm Light Thunderstorms and Rain
1:15 AM 82.2 °F 81.3 °F 53.6 °F 37% 29.79 in 10.0 mi SSE 20.7 mph 32.2 mph N/A Thunderstorm Thunderstorm
1:35 AM 83.7 °F - 51.8 °F 33% 29.78 in 10.0 mi South 17.3 mph 25.3 mph N/A Rain Light Rain
1:55 AM 86.0 °F - 49.1 °F 28% 29.74 in 10.0 mi SE 19.6 mph - N/A   Clear
2:15 AM 86.9 °F - 48.2 °F 26% 29.71 in 10.0 mi ESE 16.1 mph - N/A   Clear
2:35 AM 84.2 °F - 50.5 °F 31% 29.72 in 10.0 mi ESE 11.5 mph - N/A   Clear
2:55 AM 83.5 °F - 50.4 °F 32% 29.70 in 10.0 mi ESE 10.4 mph - N/A   Clear
3:55 AM 82.2 °F - 50.7 °F 33% 29.73 in 10.0 mi SSW 4.6 mph - N/A   Clear
4:15 AM 77.4 °F - 54.0 °F 44% 29.76 in 10.0 mi South 6.9 mph - N/A   Clear
4:35 AM 77.2 °F - 55.0 °F 46% 29.77 in 10.0 mi Calm Calm - N/A   Clear
4:55 AM 76.1 °F - 57.7 °F 53% 29.77 in 10.0 mi East 3.5 mph - N/A   Clear
5:15 AM 74.1 °F - 58.6 °F 58% 29.76 in 10.0 mi ESE 4.6 mph - N/A   Clear
5:35 AM 72.9 °F - 58.8 °F 61% 29.76 in 10.0 mi ESE 4.6 mph - N/A   Clear
5:55 AM 69.8 °F - 59.7 °F 70% 29.75 in 10.0 mi East 6.9 mph - N/A   Clear
6:15 AM 70.2 °F - 59.7 °F 69% 29.75 in 10.0 mi ENE 9.2 mph - N/A   Clear
6:35 AM 72.0 °F - 59.4 °F 64% 29.75 in 10.0 mi ESE 8.1 mph - N/A   Clear
6:55 AM 72.7 °F - 59.2 °F 62% 29.75 in 10.0 mi SE 4.6 mph - N/A   Clear
7:15 AM 73.8 °F - 59.7 °F 61% 29.76 in 10.0 mi East 9.2 mph - N/A   Clear
7:35 AM 73.4 °F - 61.2 °F 65% 29.76 in 10.0 mi East 9.2 mph - N/A   Clear
7:55 AM 77.5 °F - 60.4 °F 55% 29.76 in 10.0 mi East 5.8 mph - N/A   Clear
8:15 AM 78.8 °F - 60.4 °F 53% 29.76 in 10.0 mi ESE 10.4 mph - N/A   Clear
8:35 AM 80.2 °F 81.1 °F 60.8 °F 51% 29.76 in 10.0 mi SSE 9.2 mph - N/A   Clear
8:55 AM 83.3 °F 83.2 °F 59.0 °F 44% 29.75 in 10.0 mi South 15.0 mph 19.6 mph N/A   Clear
9:15 AM 82.9 °F 82.7 °F 58.3 °F 43% 29.75 in 10.0 mi SSE 8.1 mph - N/A   Clear
9:35 AM 82.6 °F 82.5 °F 58.6 °F 44% 29.76 in 10.0 mi SE 8.1 mph - N/A   Clear
9:55 AM 82.0 °F 81.7 °F 56.7 °F 42% 29.74 in 10.0 mi ESE 11.5 mph - N/A   Clear
10:15 AM 81.0 °F 81.1 °F 57.6 °F 45% 29.75 in 10.0 mi ESE 5.8 mph - N/A Thunderstorm Clear
10:35 AM 82.8 °F 82.4 °F 57.2 °F 42% 29.76 in 10.0 mi East 5.8 mph - N/A   Clear
10:55 AM 83.7 °F 83.3 °F 58.3 °F 42% 29.77 in 10.0 mi NE 6.9 mph - N/A   Clear
11:15 AM 84.4 °F 84.2 °F 59.4 °F 43% 29.75 in 10.0 mi East 6.9 mph - N/A   Clear
11:35 AM 86.2 °F 85.2 °F 57.6 °F 38% 29.75 in 10.0 mi East 8.1 mph - N/A   Clear
11:55 AM 86.9 °F 86.1 °F 58.3 °F 38% 29.75 in 10.0 mi East 8.1 mph - N/A   Clear
12:15 PM 88.7 °F 87.5 °F 57.9 °F 35% 29.75 in 10.0 mi ESE 4.6 mph - N/A   Clear
12:35 PM 89.4 °F 87.3 °F 54.3 °F 30% 29.74 in 10.0 mi SE 6.9 mph - N/A   Clear
12:55 PM 87.8 °F 86.3 °F 55.9 °F 34% 29.73 in 10.0 mi SE 8.1 mph - N/A   Clear
1:15 PM 91.6 °F 89.6 °F 55.4 °F 29% 29.74 in 10.0 mi SE 12.7 mph - N/A   Clear
1:35 PM 92.7 °F 90.6 °F 55.4 °F 28% 29.74 in 10.0 mi SE 8.1 mph - N/A   Clear
1:55 PM 95.0 °F 93.4 °F 56.5 °F 27% 29.73 in 10.0 mi SE 17.3 mph - N/A   Clear
2:15 PM 95.9 °F 94.2 °F 55.6 °F 26% 29.71 in 10.0 mi SSE 9.2 mph 17.3 mph N/A   Clear
2:35 PM 96.1 °F 93.8 °F 54.0 °F 24% 29.70 in 10.0 mi SE 15.0 mph 18.4 mph N/A   Clear
2:55 PM 98.1 °F 96.1 °F 54.9 °F 23% 29.69 in 10.0 mi SSE 15.0 mph 21.9 mph N/A   Clear
3:15 PM 98.8 °F 97.0 °F 55.0 °F 23% 29.69 in 10.0 mi SSE 11.5 mph - N/A   Clear
3:35 PM 100.8 °F 99.3 °F 55.6 °F 22% 29.68 in 10.0 mi South 15.0 mph 19.6 mph N/A   Clear
3:55 PM 102.2 °F 100.4 °F 54.1 °F 20% 29.67 in 10.0 mi SSE 17.3 mph 21.9 mph N/A   Clear
4:15 PM 100.4 °F 99.7 °F 57.9 °F 24% 29.68 in 10.0 mi East 12.7 mph - N/A   Clear
4:35 PM 99.7 °F 99.6 °F 59.4 °F 26% 29.66 in 10.0 mi East 11.5 mph - N/A   Clear
4:55 PM 99.0 °F 99.5 °F 61.0 °F 28% 29.66 in 10.0 mi East 15.0 mph 26.5 mph N/A   Clear
5:15 PM 97.3 °F 98.4 °F 62.2 °F 31% 29.65 in 10.0 mi East 16.1 mph - N/A   Clear
5:35 PM 96.3 °F 97.6 °F 63.1 °F 33% 29.64 in 10.0 mi East 16.1 mph 20.7 mph N/A   Clear
5:55 PM 96.3 °F 97.6 °F 62.6 °F 33% 29.63 in 5.0 mi East 13.8 mph - N/A   Haze
6:15 PM 96.1 °F 97.3 °F 63.0 °F 33% 29.62 in 10.0 mi East 11.5 mph - N/A   Clear
6:35 PM 95.9 °F 97.5 °F 63.5 °F 34% 29.61 in 10.0 mi East 10.4 mph - N/A   Clear
6:55 PM 95.2 °F 98.3 °F 65.7 °F 38% 29.60 in 10.0 mi ENE 11.5 mph - N/A   Clear
7:15 PM 89.4 °F 91.9 °F 66.2 °F 46% 29.59 in 10.0 mi ENE 10.4 mph - N/A   Clear
7:35 PM 90.9 °F 94.4 °F 67.5 °F 46% 29.57 in 10.0 mi ENE 9.2 mph - N/A   Clear
7:55 PM 87.3 °F 90.5 °F 67.8 °F 52% 29.57 in 10.0 mi East 9.2 mph - N/A   Clear
8:15 PM 86.2 °F 89.7 °F 68.5 °F 55% 29.57 in 10.0 mi East 6.9 mph - N/A   Clear
8:35 PM 86.5 °F 90.0 °F 68.2 °F 54% 29.57 in 10.0 mi SE 5.8 mph - N/A   Clear
8:55 PM 85.1 °F 88.5 °F 68.4 °F 57% 29.57 in 10.0 mi ESE 4.6 mph - N/A   Clear
9:15 PM 88.3 °F 89.2 °F 63.0 °F 43% 29.57 in 10.0 mi SE 10.4 mph - N/A   Clear
9:35 PM 88.0 °F 86.5 °F 55.9 °F 34% 29.59 in 10.0 mi SSE 10.4 mph - N/A   Clear
9:55 PM 89.4 °F 87.3 °F 53.8 °F 30% 29.59 in 10.0 mi SSE 11.5 mph - N/A   Clear
10:15 PM 89.8 °F 87.5 °F 54.0 °F 29% 29.59 in 10.0 mi South 16.1 mph - N/A   Clear
10:35 PM 89.6 °F 88.6 °F 58.8 °F 35% 29.64 in 10.0 mi NNW 18.4 mph 28.8 mph N/A   Clear
10:55 PM 79.5 °F - 66.4 °F 64% 29.65 in 10.0 mi North 17.3 mph 21.9 mph N/A Rain Light Rain
11:15 PM 78.8 °F - 66.2 °F 65% 29.66 in 10.0 mi North 13.8 mph - N/A   Clear
11:35 PM 78.1 °F - 65.8 °F 66% 29.66 in 10.0 mi NNE 10.4 mph 20.7 mph N/A   Clear
11:55 PM 77.0 °F - 66.2 °F 69% 29.64 in 10.0 mi NE 16.1 mph 23.0 mph N/A   Clear